SCP
-0 0 0 0 0 0 0 0 0 0 0 0 0 0 0 0 0 0 0 0 1 1 1 1 1 1 1 1 1 1 1 0 0 0 0 0 0 0 0 0 0 0 0 0
0 0 0 0 0 0 0 0 0 0 0 0 0 0 0 0 0 0 0 0 1 1 1 1 1 1 1 1 1 1 1 1 0 0 0 0 0 0 0 0 0 0 0 0
0 0 0 0 0 0 0 0 0 0 0 0 0 0 0 0 0 0 0 0 1 1 1 1 1 1 1 1 1 1 1 1 1 0 0 0 0 0 0 0 0 0 0 0
0 0 0 0 0 0 0 0 0 0 0 0 0 0 0 0 0 0 0 0 1 1 1 1 1 1 1 1 1 1 1 1 1 0 0 0 0 0 0 0 0 0 0 0
0 0 0 0 0 0 0 0 0 0 0 0 0 0 0 0 0 0 0 0 0 0 1 1 1 1 1 1 1 1 1 1 1 1 0 0 0 0 0 0 0 0 0 0
0 0 0 0 0 0 0 0 0 0 0 0 0 0 0 0 0 0 0 0 0 1 1 1 1 1 1 1 1 1 1 1 1 1 0 0 0 0 0 0 0 0 0 0
0 0 0 0 0 0 0 0 0 0 0 0 0 0 0 0 0 0 0 0 0 1 1 1 1 1 1 1 1 1 1 1 1 1 0 0 0 0 0 0 0 0 0 0
0 0 0 0 0 0 0 0 0 0 0 0 0 0 0 0 0 0 0 0 1 1 1 1 1 1 1 1 1 1 1 1 1 0 0 0 0 0 0 0 0 0 0 0
0 0 0 0 0 0 0 0 0 0 0 0 0 0 0 0 0 0 0 0 1 1 1 1 1 1 1 1 1 1 1 1 1 0 0 0 0 0 0 0 0 0 0 0
0 0 0 0 0 0 0 0 0 0 0 0 0 0 0 0 0 0 0 1 1 1 1 1 1 1 1 1 1 1 1 1 0 0 0 0 0 0 0 0 0 0 0 0
0 0 0 0 0 0 0 0 0 0 0 0 0 0 0 0 0 0 0 1 1 1 1 1 1 1 1 1 1 1 1 1 0 0 0 0 0 0 0 0 0 0 0 0
0 0 0 0 0 0 0 0 0 0 0 0 0 0 0 0 0 0 0 1 1 1 1 1 1 1 1 1 1 1 1 1 1 0 0 0 1 1 0 0 0 0 0 0
0 0 0 0 0 0 0 0 0 0 0 0 0 0 0 0 0 0 1 1 1 1 1 1 1 1 1 1 1 1 1 1 1 1 1 1 1 0 0 0 0 0 0 0
0 0 0 0 0 0 0 0 0 0 0 0 0 0 0 0 0 0 1 1 1 1 1 1 1 1 1 1 1 1 1 1 1 1 1 1 1 0 0 0 0 0 0 0
0 0 0 0 0 0 0 0 0 0 0 0 0 0 0 0 0 0 0 1 1 1 0 0 0 1 1 0 0 0 0 0 0 0 1 1 0 0 0 0 0 0 0 0
0 0 0 0 0 0 0 0 0 0 0 0 0 0 0 0 0 0 0 0 1 1 0 0 0 0 0 0 0 0 0 0 0 0 0 1 0 0 0 0 0 0 0 0
0 0 0 0 0 0 0 0 0 0 0 0 0 0 0 0 0 0 0 0 0 0 0 0 0 0 0 0 0 1 1 0 0 0 0 0 0 0 0 0 0 0 0 0
0 0 0 0 0 0 0 0 0 0 0 0 0 0 0 0 0 0 0 0 0 0 0 0 0 0 0 0 0 1 0 0 0 0 0 0 0 0 0 0 0 0 0 0
0 0 0 0 0 0 0 0 0 0 0 0 0 0 0 0 0 0 0 0 0 0 0 0 0 0 0 0 0 0 0 0 0 0 0 0 0 0 0 0 0 0 0 0
0 0 0 0 0 0 0 0 0 0 0 0 0 0 0 0 0 0 0 0 0 0 0 0 0 0 0 0 0 0 0 0 0 0 0 0 0 0 0 0 0 0 0 0
0 0 0 0 0 0 0 0 0 0 0 0 0 0 0 0 0 0 0 0 0 0 0 0 0 0 0 0 0 0 0 0 0 0 0 0 0 0 0 0 0 0 0 0
0 0 0 0 0 0 0 0 0 0 0 0 0 0 0 0 0 0 0 0 0 0 0 0 0 0 0 0 0 0 0 0 0 0 0 0 0 0 0 0 0 0 0 0
0 0 0 0 0 0 0 0 0 0 0 0 0 0 0 0 0 0 0 0 0 0 0 0 0 0 0 0 0 0 0 0 0 0 0 0 0 0 0 0 0 0 0 0
0 0 0 0 0 0 0 0 0 0 0 0 0 0 0 0 0 0 0 0 0 0 0 0 0 0 0 0 0 0 0 0 0 0 0 0 0 0 0 0 0 0 0 0
0 0 0 0 0 0 0 0 0 0 0 0 0 0 0 0 0 0 0 0 0 0 0 0 0 0 0 0 0 0 0 0 0 0 0 0 0 0 0 0 0 0 0 0
0 0 0 0 0 0 0 0 0 0 0 0 0 0 0 0 0 0 0 0 0 0 0 0 0 0 0 0 0 0 0 0 0 0 0 0 0 0 0 0 0 0 0 0
Wind_Speed
1 2 5 8 8 7 4 4 6 7 5 0 3 4 5 4 5 5 7 8 8 7 6 5 7 8 8 7 7 7 7 6 5 3 3 2 2 2 2 2 3 4 4 4
2 6 10 7 6 5 6 6 7 6 3 1 2 4 4 5 7 7 8 9 9 7 6 5 6 7 7 8 8 7 7 6 5 4 3 2 2 2 2 2 2 3 4 4
8 8 6 6 6 7 7 7 7 5 3 2 2 3 4 3 2 4 5 7 8 11 11 9 7 7 7 7 8 7 7 6 5 4 3 2 2 1 1 1 1 2 3 3
7 8 6 6 8 7 7 8 7 5 1 3 2 3 7 4 2 4 5 6 8 9 9 9 8 9 9 8 7 7 7 6 5 5 4 4 3 2 2 2 2 2 2 2
7 6 5 8 9 6 6 5 5 4 2 1 2 1 6 1 3 5 6 8 8 9 10 10 10 9 8 7 6 6 6 5 5 5 5 4 3 2 1 2 2 2 1 2
8 5 5 7 6 5 3 0 2 3 3 1 5 3 5 4 6 6 6 8 8 8 9 9 9 9 7 6 5 6 6 5 5 5 5 5 5 3 3 3 3 2 1 1
6 6 5 4 2 2 3 4 3 4 2 5 3 2 6 7 6 8 10 9 8 8 9 9 9 8 7 7 7 7 7 5 5 5 5 5 5 5 5 4 3 3 1 1
3 7 5 4 6 5 4 8 7 5 5 4 2 3 6 5 2 3 7 8 8 8 7 9 9 9 8 8 8 7 7 6 5 5 4 3 4 3 3 3 3 3 2 3
4 6 4 3 3 6 4 4 7 7 3 1 3 4 4 2 2 3 5 7 8 9 8 8 8 8 8 8 7 7 7 6 5 5 4 3 3 3 3 3 2 2 2 2
5 3 5 4 2 1 5 5 5 5 4 3 3 3 5 4 2 2 4 6 7 8 8 7 7 8 7 7 6 6 6 6 5 4 4 4 3 3 3 3 3 3 2 2
3 3 4 2 1 2 1 2 4 3 5 5 3 5 4 8 7 6 5 5 7 8 8 7 6 6 7 6 5 6 5 5 5 4 4 3 3 3 2 2 2 3 2 2
2 4 2 5 5 2 4 4 5 4 3 4 4 6 2 5 6 6 6 5 5 7 8 7 6 5 5 5 5 4 4 5 5 5 4 4 3 3 2 2 2 2 2 2
2 4 0 6 6 4 1 1 2 4 3 3 4 5 1 4 5 5 7 6 5 6 7 6 6 5 5 5 4 4 4 4 4 4 4 3 3 3 3 2 2 2 2 2
3 3 6 7 6 3 2 2 1 4 2 2 4 4 1 2 4 4 6 7 6 6 6 6 5 5 4 4 4 4 3 3 4 4 4 3 3 3 3 2 2 2 2 2
5 2 2 3 3 1 1 2 1 1 4 5 5 5 5 5 5 5 6 7 8 6 5 5 5 4 4 4 3 3 3 3 4 4 3 3 3 3 2 2 2 2 2 3
4 1 0 1 1 1 2 3 2 1 1 2 2 2 3 3 3 5 6 7 7 7 6 5 5 5 4 4 4 3 3 2 3 4 3 3 3 3 2 2 2 2 2 2
2 3 2 3 3 2 3 3 0 1 0 3 3 4 4 5 4 4 5 6 7 7 6 6 5 5 5 4 4 5 4 2 3 3 3 2 3 3 2 2 2 1 2 2
5 3 3 1 1 2 5 2 3 5 4 3 3 3 5 5 4 3 3 4 4 5 6 5 4 4 3 3 3 3 3 3 2 2 3 3 3 2 2 2 2 2 2 2
5 6 3 3 2 3 3 2 0 3 2 3 3 3 3 4 5 3 1 3 3 3 4 5 5 4 3 3 3 4 3 3 3 2 2 3 3 3 2 2 3 2 2 2
3 4 4 3 3 4 5 4 1 5 1 2 2 4 3 3 2 2 1 2 3 3 3 3 3 3 3 3 3 4 3 3 2 3 3 3 3 3 3 3 3 2 2 3
2 2 2 3 3 3 5 5 2 3 5 2 3 4 4 3 3 3 1 2 3 3 3 3 3 3 3 3 4 4 3 2 3 2 2 2 2 3 3 2 2 2 2 2
2 2 2 2 2 5 4 2 2 4 2 2 2 3 3 3 3 3 3 3 3 4 3 3 3 3 2 3 4 3 3 2 1 1 1 1 2 2 2 2 2 2 2 2
1 3 3 4 4 3 1 2 2 3 3 2 2 2 4 5 3 3 3 3 2 3 2 1 2 2 1 2 3 3 3 2 1 1 1 2 2 2 2 3 3 2 2 2
2 1 2 2 1 1 1 3 2 2 2 2 2 3 4 4 4 4 3 2 2 1 1 1 1 1 1 1 2 2 2 2 2 2 2 2 2 2 2 2 2 2 3 3
2 2 2 1 1 2 2 1 2 3 4 5 4 3 4 5 4 4 3 2 2 1 0 1 2 2 1 1 1 1 2 2 2 2 2 2 2 2 2 2 3 3 4 4
1 2 3 4 5 3 3 1 3 4 3 4 4 3 2 4 4 3 3 2 2 1 1 1 2 2 1 1 1 1 1 2 2 1 2 2 2 3 3 3 3 4 4 5
Wind_Direction
230 106 227 226 207 209 224 251 261 263 257 279 221 213 215 206 170 167 168 168 167 163 166 154 151 149 145 143 146 156 150 153 148 144 144 143 162 175 168 172 162 155 150 142
3 253 237 235 229 218 236 254 267 287 283 205 220 241 218 201 189 181 176 171 169 162 154 153 151 149 150 154 156 158 160 160 160 164 163 160 160 174 176 169 153 156 153 150
207 239 230 230 241 231 239 217 223 237 314 343 65 324 271 239 192 166 168 165 166 166 166 168 165 158 151 155 164 163 162 161 160 156 134 112 79 60 81 142 166 178 161 158
234 242 240 240 237 220 243 224 209 220 181 285 100 273 274 232 225 180 182 173 174 170 162 162 163 160 164 170 165 156 159 158 158 150 146 150 158 175 197 179 180 188 180 168
240 225 226 239 236 211 228 221 205 205 171 289 333 193 279 264 232 218 193 180 175 171 165 164 161 163 167 164 165 158 153 157 163 157 158 161 166 184 181 155 157 174 192 182
245 240 213 230 240 201 191 344 14 37 75 261 245 195 267 244 226 216 195 181 173 165 163 161 160 154 158 163 161 156 151 162 169 162 162 164 168 165 156 159 160 176 191 195
282 273 254 229 243 274 115 105 36 359 354 250 239 192 246 253 231 199 187 181 169 161 155 153 151 154 160 165 162 160 158 164 168 164 167 170 166 165 172 174 172 171 172 192
234 272 249 224 193 194 198 152 162 191 219 264 298 221 249 257 253 181 166 163 155 152 149 149 154 156 162 164 158 158 162 167 167 162 167 167 162 163 171 173 168 176 184 195
195 254 266 241 216 164 174 200 175 151 192 190 256 268 300 337 34 83 129 140 152 152 150 150 155 155 156 157 159 165 167 170 171 167 160 160 163 153 158 163 158 169 183 189
171 241 273 270 15 350 164 162 101 125 165 222 249 240 234 220 191 152 140 153 155 149 145 142 144 150 154 160 160 165 169 175 172 167 168 166 161 159 162 153 154 165 175 178
143 174 297 335 212 227 84 96 123 137 159 163 219 260 228 200 187 168 169 160 156 155 150 147 148 150 147 148 150 160 171 167 162 167 165 161 160 159 152 154 163 167 171 171
158 136 250 260 259 194 157 173 150 160 220 168 176 255 269 175 175 153 148 147 145 151 146 145 144 136 127 131 139 149 157 159 163 162 155 160 158 151 151 159 168 162 168 174
97 115 52 327 332 354 53 137 145 146 137 161 178 253 316 130 136 134 132 131 131 129 129 130 129 130 136 139 144 149 154 154 153 149 149 150 154 158 168 178 176 165 173 180
101 124 167 202 221 227 275 319 55 115 142 195 204 217 248 149 145 131 133 134 128 126 128 131 133 133 135 141 145 149 149 143 144 148 152 159 169 170 172 171 171 175 179 183
78 117 201 212 226 203 265 289 287 178 189 188 214 198 211 191 175 151 138 132 128 127 129 139 140 132 127 132 142 149 147 142 143 147 158 177 173 166 160 163 175 183 187 190
69 105 18 266 263 42 360 333 303 299 168 162 146 213 204 167 133 124 132 133 132 139 145 148 141 136 142 148 157 149 145 159 154 155 168 169 153 152 157 165 165 161 173 183
112 121 105 255 278 359 323 293 307 93 114 158 185 215 143 110 121 151 152 143 150 156 155 152 149 156 161 166 161 157 157 152 149 150 149 148 150 148 165 171 156 169 192 192
152 136 143 203 38 215 244 282 92 89 57 52 115 130 137 139 134 114 120 135 154 159 157 153 150 154 164 149 139 136 130 136 145 154 160 162 161 170 177 168 181 202 208 205
164 151 143 147 171 247 285 308 173 118 59 6 94 99 117 123 82 60 101 135 166 165 163 161 157 154 152 147 143 132 136 151 157 168 182 181 176 179 182 193 204 208 203 218
75 123 133 151 171 213 249 287 265 109 107 306 105 123 124 99 114 232 220 125 125 124 137 140 135 124 132 149 139 130 140 151 168 197 202 197 186 183 195 213 221 219 207 223
26 51 144 172 191 243 278 301 39 131 223 229 152 141 126 130 180 191 150 105 118 109 114 113 121 131 155 156 138 140 151 192 210 215 209 194 207 202 203 208 219 227 229 236
172 156 192 158 177 246 308 35 123 198 202 141 130 134 123 127 121 115 99 92 98 93 88 109 129 156 173 161 148 156 189 207 195 192 207 214 228 226 214 202 226 233 226 229
151 184 180 177 204 238 300 134 171 151 129 120 124 122 118 123 121 112 97 95 97 98 91 93 137 150 180 173 162 176 209 184 165 191 237 246 251 246 228 214 224 233 230 225
328 34 92 84 344 341 50 76 68 94 109 104 112 109 109 120 123 116 113 104 95 93 120 138 137 145 234 218 176 191 202 174 165 213 248 258 266 277 279 255 239 231 231 235
283 19 48 59 296 14 13 53 85 80 92 96 94 99 116 124 124 126 129 138 141 112 250 157 152 163 231 283 247 220 209 176 179 219 243 261 268 266 272 266 246 238 234 224
263 176 172 222 226 198 235 244 112 105 104 111 109 93 104 122 131 127 139 151 141 161 167 138 137 159 202 216 245 254 226 187 185 230 246 247 251 261 260 262 280 281 265 256